Home > Time Zones > World Clock > Weather > Belgium > Spa > Past weeks

Flag for Belgium Weather past 2 weeks in Spa, Belgium

Now
34 °F

Fog.


Feels Like: 30 °F
Forecast: 32 / 37 °F
Wind: 5 mph from South

Location: Spa / La Sauveniere

Current Time: Jan 28, 2015 at 6:15:17 AM

Latest Report: Jan 28, 2015 at 5:00 AM


Visibility: 2 mi

Pressure: 30.10 "Hg

Humidity: 97%

Dew point: 33 °F

Location of SpaLocation

Historic Weather in Spa — Graph

°F

Spa temperature yesterday

Maximum temperature yesterday: 35 °F (at 8:00 PM)
Minimum temperature yesterday: 33 °F (at 3:00 AM)
Average temperature yesterday: 34 °F

Past Weeks' High & Low Weather Summary

 TemperatureHumidityPressure
High48 °F (Jan 13, 12:00 PM)100% (Jan 17, 6:00 AM)30.48 "Hg (Jan 17, 6:00 AM)
Low23 °F (Jan 21, 12:00 AM)68% (Jan 13, 12:00 PM)29.50 "Hg (Jan 15, 3:00 PM)
Average33 °F91%30.02 "Hg
* Reported Jan 13 5:00 AM — Jan 28 5:00 AM, Spa, Weather by CustomWeather, © 2014

Note: Actual official high and low records may vary slightly from our data, if they occured in-between our weather recording intervals... More about our weather records

Advertising

Spa weather history for previous 24 hours

 ConditionsComfort  
Time TempWeatherWind HumidityBarometerVisibility
5:00 AM
Jan 28
34 °FFog.5 mph97%30.10 "Hg2 mi
4:00 AM34 °FLow clouds.5 mph96%30.14 "HgN/A
3:00 AM34 °FFog.5 mph96%30.16 "Hg2 mi
2:00 AM34 °FLow clouds.3 mph95%30.19 "HgN/A
1:00 AM34 °FFog.2 mph96%30.22 "Hg2 mi
12:00 AM34 °FFog.2 mph96%30.24 "Hg2 mi
11:00 PM
Jan 27
35 °FDense fog.3 mph97%30.25 "Hg1 mi
10:00 PM35 °FDense fog.3 mph98%30.25 "Hg1 mi
9:00 PM35 °FDense fog.2 mph97%30.26 "Hg1 mi
8:00 PM35 °FFog.3 mph97%30.26 "Hg1 mi
7:00 PM35 °FDense fog.3 mph97%30.26 "Hg2 mi
6:00 PM35 °FDense fog.3 mph96%30.26 "Hg2 mi
5:00 PM35 °FFog.3 mph97%30.26 "Hg1 mi
4:00 PM34 °FFog.3 mph97%30.25 "Hg1 mi
3:00 PM34 °FFog.5 mph97%30.26 "Hg1 mi
2:00 PM34 °FFog.3 mph97%30.27 "Hg2 mi
1:00 PM34 °FFog.3 mph97%30.27 "Hg1 mi
12:00 PM34 °FDense fog.3 mph97%30.29 "Hg1 mi
11:00 AM33 °FLow clouds.5 mph97%30.28 "HgN/A
10:00 AM34 °FDense fog.5 mph99%30.28 "Hg0 mi
9:00 AM33 °FDense fog.3 mph100%30.28 "Hg0 mi
8:00 AM33 °FDense fog.3 mph98%30.27 "Hg1 mi
7:00 AM33 °FDense fog.3 mph98%30.27 "Hg0 mi
6:00 AM33 °FDense fog.3 mph99%30.26 "Hg0 mi
Weather by CustomWeather, © 2014

See weather overviewHow to use our weather pages